Weather History for KGNC - June, 2013

Change the Weather History Date:

Saturday, June 15, 2013

  Actual Average (KHOB) Record (KHOB)
Temperature  
Mean Temperature 75 °F -  
Max Temperature 89 °F 90 °F 105 °F (2004)
Min Temperature 62 °F 63 °F 57 °F (1999)
Cooling Degree Days 10    
Growing Degree Days 25 (Base 50)    
Moisture  
Dew Point 61 °F    
Average Humidity 65    
Maximum Humidity 95    
Minimum Humidity 32    
Precipitation  
Precipitation 0.66 in - - ()
Sea Level Pressure  
Sea Level Pressure 30.04 in    
Wind  
Wind Speed 4 mph (SSE)    
Max Wind Speed 10 mph    
Max Gust Speed 20 mph    
Visibility 8 miles    
Events Rain    
Averages and records for this station are not official NWS values.
T = Trace of Precipitation, MM = Missing Value Source: NWS Daily Summary

Daily Weather History Graph

Daily Weather History Graph

Search for Another Location

Airport or City:

Trip Planner

Search our weather history database for the weather conditions in past years. The results will help you decide how hot, cold, wet, or windy it might be!

Date:

Astronomy

Jun. 15, 2013 Rise Set
Actual Time 6:42 AM CDT 9:00 PM CDT
Civil Twilight 6:13 AM CDT 9:28 PM CDT
Nautical Twilight 5:38 AM CDT 10:03 PM CDT
Astronomical Twilight 5:00 AM CDT 10:41 PM CDT
Moon 12:59 PM CDT (6/15) 12:54 AM CDT (6/15)
Length of Visible Light 15h 14m
Length of Day
14h 17m
Waxing Crescent, 40% of the Moon is Illuminated
Jun 15
Waxing Crescent
Jun 16
First Quarter
Jun 23
Full
Jun 29
Last Quarter
Jul 8
New

Hourly Weather History & Observations

Time (CDT) Temp. Heat Index Dew Point Humidity Pressure Visibility Wind Dir Wind Speed Gust Speed Precip Events Conditions
12:15 AM 70.9 °F - 61.9 °F 73% 30.08 in 10.0 mi SSE 9.2 mph - N/A   Clear
12:35 AM 70.7 °F - 62.1 °F 74% 30.09 in 10.0 mi SSE 6.9 mph - N/A   Scattered Clouds
12:55 AM 70.7 °F - 62.2 °F 75% 30.09 in 10.0 mi South 5.8 mph - N/A   Scattered Clouds
1:15 AM 70.7 °F - 62.6 °F 75% 30.09 in 10.0 mi South 4.6 mph - N/A   Mostly Cloudy
1:35 AM 70.3 °F - 63.0 °F 77% 30.10 in 10.0 mi Calm Calm - N/A   Overcast
1:55 AM 64.9 °F - 58.6 °F 80% 30.09 in 1.5 mi Calm Calm - 0.36 in Rain Heavy Rain
2:15 AM 63.1 °F - 61.2 °F 93% 30.05 in 3.0 mi Calm Calm - 0.25 in Rain Rain
2:35 AM 62.6 °F - 60.8 °F 94% 30.01 in 7.0 mi SSE 8.1 mph 19.6 mph 0.29 in Rain Light Rain
2:55 AM 63.5 °F - 59.9 °F 88% 30.01 in 10.0 mi Calm Calm - 0.30 in Rain Light Rain
3:15 AM 64.4 °F - 59.7 °F 85% 30.03 in 10.0 mi Calm Calm - N/A   Clear
3:35 AM 65.3 °F - 59.7 °F 82% 30.03 in 10.0 mi Calm Calm - N/A   Clear
3:55 AM 65.3 °F - 59.7 °F 82% 30.04 in 10.0 mi Calm Calm - N/A   Scattered Clouds
4:15 AM 64.8 °F - 60.1 °F 85% 30.03 in 10.0 mi Calm Calm - N/A   Clear
4:35 AM 64.6 °F - 60.6 °F 87% 30.03 in 10.0 mi Calm Calm - N/A   Mostly Cloudy
4:55 AM 64.8 °F - 60.8 °F 87% 30.01 in 10.0 mi Calm Calm - N/A   Overcast
5:15 AM 65.1 °F - 61.0 °F 86% 30.02 in 10.0 mi Calm Calm - N/A   Mostly Cloudy
5:35 AM 65.8 °F - 61.7 °F 86% 30.01 in 10.0 mi Calm Calm - N/A   Overcast
5:55 AM 66.2 °F - 63.3 °F 90% 30.03 in 10.0 mi Calm Calm - N/A   Scattered Clouds
6:15 AM 66.2 °F - 63.9 °F 92% 30.04 in 10.0 mi Calm Calm - N/A   Scattered Clouds
6:35 AM 66.7 °F - 64.8 °F 93% 30.04 in 10.0 mi Calm Calm - N/A   Mostly Cloudy
6:55 AM 67.1 °F - 65.5 °F 95% 30.06 in 7.0 mi Calm Calm - N/A   Mostly Cloudy
7:15 AM 68.0 °F - 66.2 °F 94% 30.06 in 10.0 mi Calm Calm - N/A   Overcast
7:35 AM 68.0 °F - 65.8 °F 93% 30.07 in 7.0 mi Calm Calm - N/A   Mostly Cloudy
7:55 AM 68.0 °F - 65.5 °F 92% 30.09 in 10.0 mi Calm Calm - N/A   Scattered Clouds
8:15 AM 68.4 °F - 65.7 °F 91% 30.09 in 10.0 mi Calm Calm - N/A   Scattered Clouds
8:35 AM 68.7 °F - 66.0 °F 91% 30.09 in 10.0 mi Calm Calm - N/A   Scattered Clouds
8:55 AM 69.1 °F - 65.5 °F 88% 30.09 in 10.0 mi Calm Calm - N/A   Mostly Cloudy
9:15 AM 69.3 °F - 65.1 °F 87% 30.10 in 10.0 mi South 5.8 mph - N/A   Mostly Cloudy
9:35 AM 70.0 °F - 64.8 °F 83% 30.10 in 10.0 mi South 5.8 mph - N/A   Overcast
9:55 AM 70.5 °F - 65.1 °F 83% 30.09 in 10.0 mi SSE 5.8 mph - N/A   Overcast
10:15 AM 71.8 °F - 65.3 °F 80% 30.10 in 10.0 mi South 5.8 mph - N/A   Overcast
10:35 AM 71.4 °F - 64.9 °F 80% 30.10 in 10.0 mi SSW 6.9 mph - N/A   Overcast
10:55 AM 72.3 °F - 64.0 °F 75% 30.10 in 10.0 mi SSW 5.8 mph - N/A   Mostly Cloudy
11:15 AM 72.9 °F - 64.4 °F 75% 30.10 in 10.0 mi South 5.8 mph - N/A   Mostly Cloudy
11:35 AM 73.4 °F - 64.2 °F 73% 30.10 in 10.0 mi Calm Calm - N/A   Overcast
11:55 AM 75.0 °F - 64.4 °F 69% 30.10 in 10.0 mi SSW 5.8 mph - N/A   Overcast
12:15 PM 74.8 °F - 63.3 °F 67% 30.09 in 10.0 mi Calm Calm - N/A   Mostly Cloudy
12:35 PM 75.7 °F - 63.5 °F 66% 30.09 in 10.0 mi Calm Calm - N/A   Scattered Clouds
12:55 PM 77.2 °F - 62.8 °F 61% 30.09 in 10.0 mi SW 5.8 mph - N/A   Scattered Clouds
1:15 PM 78.4 °F - 63.1 °F 59% 30.08 in 10.0 mi SSE 4.6 mph - N/A   Clear
1:35 PM 79.7 °F - 63.3 °F 57% 30.07 in 10.0 mi SE 3.5 mph - N/A   Scattered Clouds
1:55 PM 79.9 °F - 61.9 °F 54% 30.06 in 10.0 mi South 3.5 mph - N/A   Scattered Clouds
2:15 PM 81.3 °F 82.3 °F 62.1 °F 52% 30.05 in 10.0 mi SE 3.5 mph - N/A   Clear
2:35 PM 81.7 °F 82.3 °F 61.0 °F 49% 30.04 in 7.0 mi SE 3.5 mph - N/A   Clear
2:55 PM 82.9 °F 83.5 °F 61.3 °F 48% 30.04 in 5.0 mi ESE 8.1 mph - N/A   Haze
3:15 PM 83.7 °F 83.8 °F 60.4 °F 45% 30.03 in 4.0 mi East 6.9 mph - N/A   Haze
3:35 PM 85.1 °F 85.0 °F 60.1 °F 43% 30.01 in 4.0 mi ESE 5.8 mph - N/A   Haze
3:55 PM 85.6 °F 85.0 °F 59.0 °F 40% 30.00 in 7.0 mi SSE 6.9 mph - N/A   Clear
4:15 PM 86.9 °F 85.9 °F 57.7 °F 37% 30.00 in 10.0 mi South 3.5 mph - N/A   Clear
4:35 PM 87.8 °F 86.7 °F 57.4 °F 36% 30.00 in 7.0 mi South 4.6 mph - N/A   Clear
4:55 PM 87.8 °F 86.5 °F 56.7 °F 35% 29.99 in 7.0 mi SE 8.1 mph - N/A   Clear
5:15 PM 88.2 °F 86.7 °F 56.7 °F 34% 29.99 in 7.0 mi South 8.1 mph - N/A   Clear
5:35 PM 88.5 °F 86.9 °F 55.8 °F 33% 29.98 in 5.0 mi Calm Calm - N/A   Haze
5:55 PM 88.2 °F 86.5 °F 55.4 °F 33% 29.97 in 5.0 mi Calm Calm - N/A   Haze
6:15 PM 88.9 °F 87.1 °F 55.4 °F 32% 29.97 in 5.0 mi Calm Calm - N/A   Haze
6:35 PM 88.9 °F 87.1 °F 55.0 °F 32% 29.97 in 4.0 mi SSE 3.5 mph - N/A   Haze
6:55 PM 88.0 °F 86.1 °F 54.7 °F 32% 29.97 in 5.0 mi Calm Calm - N/A   Haze
7:15 PM 86.9 °F 85.1 °F 54.9 °F 33% 29.97 in 5.0 mi South 3.5 mph - N/A   Haze
7:35 PM 86.9 °F 85.3 °F 55.2 °F 34% 29.96 in 4.0 mi SE 5.8 mph - N/A   Haze
7:55 PM 87.3 °F 85.5 °F 55.2 °F 33% 29.97 in 5.0 mi SE 4.6 mph - N/A   Haze
8:15 PM 85.8 °F 85.2 °F 58.6 °F 40% 29.97 in 5.0 mi SE 9.2 mph - N/A   Haze
8:35 PM 85.3 °F 84.8 °F 59.0 °F 41% 29.98 in 4.0 mi SE 9.2 mph - N/A   Haze
8:55 PM 83.7 °F 83.8 °F 60.3 °F 45% 29.98 in 4.0 mi SE 8.1 mph - N/A   Haze
9:15 PM 82.4 °F 82.9 °F 61.2 °F 48% 29.98 in 7.0 mi SE 8.1 mph - N/A   Clear
9:35 PM 80.8 °F 81.8 °F 61.5 °F 52% 29.99 in 7.0 mi SE 6.9 mph - N/A   Clear
9:55 PM 79.9 °F - 61.7 °F 54% 29.99 in 10.0 mi SE 6.9 mph - N/A   Clear
10:15 PM 79.0 °F - 61.7 °F 55% 30.00 in 7.0 mi SE 6.9 mph - N/A   Clear
10:35 PM 78.3 °F - 61.9 °F 57% 30.00 in 7.0 mi SE 10.4 mph - N/A   Clear
10:55 PM 78.1 °F - 62.4 °F 58% 30.01 in 7.0 mi SSE 10.4 mph - N/A   Clear
11:15 PM 77.9 °F - 63.5 °F 61% 30.03 in 10.0 mi SSE 9.2 mph - N/A   Clear
11:35 PM 77.2 °F - 63.3 °F 62% 30.03 in 10.0 mi SSE 10.4 mph - N/A   Clear
11:55 PM 76.5 °F - 63.0 °F 63% 30.03 in 10.0 mi SSE 9.2 mph - N/A   Clear